Location: Gleizolles
(44.4833°N, 6.7667°E)
Time: 00:56:41
(UTC+00:00)

S-56A Canister/Altair - Pass Details

Date: 28 June 2024
Orbit: 638 x 2488 km, 38.9° (Epoch: 24 July)

Event Time Altitude Azimuth Distance (km) Brightness Sun altitude
Rises 02:49:07 0° 273° (W) 5,598 11.5 -9.2°
Reaches altitude 10° 02:56:18 10° 248° (WSW) 4,921 11.1 -8.3°
Maximum altitude 03:00:40 12° 229° (SW) 4,876 10.9 -7.8°
Drops below altitude 10° 03:05:13 10° 211° (SSW) 5,123 11.1 -7.2°
Sets 03:13:20 0° 185° (S) 6,113 11.7 -6.1°
